sat.trackr.live / text

‹ back to catalog

STARLINK-33709

NORAD 63419 · 2025-065W

PAYLOAD ACTIVE UNKNOWN

§ Identity

Operator
Country
US
Launch date
2025-03-31
Launch site
AFETR
Launch vehicle
Mass (kg)
RCS (m²)

Purposes: comms

External: N2YO · Heavens-Above · Gunter

§ Orbital elements

Epoch: 2026-09-20T21:56:58.446240Z

Period
94.27 min
Inclination
43.0013°
Eccentricity
0.0000668
Mean motion
15.27584798 rev/d
Perigee alt
482.6 km
Apogee alt
483.5 km
Semi-major
6,861.2 km
B*
4.3972e-4
RAAN
84.7871°
Arg perigee
312.9472°
Mean anomaly
47.1324°
Rev number
8,269

§ Raw data

STARLINK-337091 63419U 25065W   26263.91456535  .00011859  00000+0  43972-3 0  99992 63419  43.0013  84.7871 0000668 312.9472  47.1324 15.27584798 82691

JSON: /api/v1/satellites/63419 · /tle

For live sub-satellite position, see the globe view (requires WebGL).

§ Visibility from observer

Set your observer location to see the next 7 days of passes ≥ 10°. The values pass through the URL so the page stays shareable.

No JS? Fill the form by hand. The geolocation button needs JavaScript.